This demonstration page uses our WeatherBlox Daily Observations layout. Learn more.

Left ArrowRight Arrow

40.92945, -100.16068

Hourly Observations for June 26, 2020

Temp ( °F °C ) Dew Point ( °F °C ) Humidity (%) Winds ( mph kmh ) Pressure ( in mb ) Visibility ( mi km ) Precip ( " mm )
12:15 am 00:15 Clear 78 25.8 54 12.4 43 43 N 7 11 29.76 1008 10 16.0934 0 0
12:35 am 00:35 Clear 74 23.5 57 13.7 54 54 N 9 15 29.78 1009 10 16.0934 0 0
12:55 am 00:55 Clear 73 22.5 58 14.3 60 60 NNW 9 15 29.81 1010 10 16.0934 0 0
1:15 am 01:15 Clear 72 22.1 58 14.3 61 61 NW 9 15 29.81 1010 10 16.0934 0 0
1:35 am 01:35 Clear 70 21.3 58 14.5 65 65 Calm 29.82 1010 10 16.0934 0 0
1:55 am 01:55 Clear 69 20.7 58 14.6 68 68 SE 5 7 29.81 1009 10 16.0934 0 0
2:15 am 02:15 Clear 69 20.5 59 15 71 71 S 5 7 29.82 1010 10 16.0934 0 0
2:35 am 02:35 Clear 68 20.2 60 15.5 75 75 S 3 6 29.82 1010 10 16.0934 0 0
2:55 am 02:55 Clear 68 20 60 15.8 77 77 Calm 29.82 1010 10 16.0934 0 0
3:15 am 03:15 Clear 68 20.1 61 15.9 77 77 W 5 7 29.83 1010 10 16.0934 0 0
3:35 am 03:35 Clear 68 20 61 16 78 78 WNW 3 6 29.83 1010 10 16.0934 0 0
3:55 am 03:55 Clear 68 20 61 16 78 78 W 5 7 29.84 1011 10 16.0934 0 0
4:15 am 04:15 Clear 67 19.7 61 16.1 80 80 Calm 29.83 1010 10 16.0934 0 0
4:35 am 04:35 Clear 68 20 61 16 78 78 Calm 29.87 1012 10 16.0934 0 0
4:55 am 04:55 Clear 67 19.7 61 16 79 79 N 3 6 29.88 1012 10 16.0934 0 0
5:15 am 05:15 Clear 67 19.2 60 15.8 81 81 ENE 8 13 29.89 1012 10 16.0934 0 0
5:35 am 05:35 Clear 66 18.7 60 15.5 82 82 E 5 7 29.88 1012 10 16.0934 0 0
5:55 am 05:55 Clear 65 18.2 59 15.1 82 82 ESE 3 6 29.89 1012 10 16.0934 0 0
6:15 am 06:15 Sunny 65 18.2 59 15 82 82 Calm 29.9 1012 10 16.0934 0 0
6:35 am 06:35 Sunny 61 16.1 58 14.7 91 91 Calm 29.92 1013 10 16.0934 0 0
6:55 am 06:55 Sunny 61 16 58 14.3 90 90 Calm 29.91 1013 10 16.0934 0 0
7:15 am 07:15 Sunny 62 16.6 59 14.8 89 89 Calm 29.91 1013 10 16.0934 0 0
7:35 am 07:35 Sunny 65 18.5 61 16 85 85 Calm 29.89 1012 10 16.0934 0 0
7:55 am 07:55 Sunny 68 20.1 61 16.2 78 78 SE 6 9 29.85 1011 10 16.0934 0 0
8:15 am 08:15 Sunny 70 21.1 61 16.2 74 74 NNW 5 7 29.87 1012 10 16.0934 0 0
8:35 am 08:35 Sunny 72 22 62 16.6 72 72 N 5 7 29.87 1011 10 16.0934 0 0
8:55 am 08:55 Sunny 73 23 62 16.5 67 67 NNW 6 9 29.87 1011 10 16.0934 0 0
9:15 am 09:15 Sunny 73 22.5 62 16.5 69 69 NNW 6 9 29.87 1012 10 16.0934 0 0
9:35 am 09:35 Sunny 73 22.5 62 16.7 70 70 NNW 3 6 29.88 1012 10 16.0934 0 0
9:55 am 09:55 Sunny 74 23.5 63 17.2 68 68 NNW 7 11 29.87 1012 10 16.0934 0 0
10:15 am 10:15 Sunny 78 25.5 64 17.6 62 62 N 6 9 29.85 1011 10 16.0934 0 0
10:35 am 10:35 Sunny 80 26.9 63 17.1 55 55 NNE 8 13 29.83 1010 10 16.0934 0 0
10:55 am 10:55 Sunny 81 27.2 64 17.7 56 56 NNW 5 7 29.83 1010 10 16.0934 0 0
11:15 am 11:15 Sunny 83 28.5 63 17.1 50 50 N 8 13 29.82 1010 10 16.0934 0 0
11:35 am 11:35 Sunny 83 28.6 63 17 49 49 N 7 11 29.82 1010 10 16.0934 0 0
11:55 am 11:55 Sunny 84 29 63 17.1 49 49 NNE 6 9 29.82 1010 10 16.0934 0 0
12:15 pm 12:15 Sunny 85 29.5 63 17.2 48 48 NE 8 13 29.8 1009 10 16.0934 0 0
12:35 pm 12:35 Sunny 85 29.3 62 16.8 47 47 N 5 7 29.8 1009 10 16.0934 0 0
12:55 pm 12:55 Sunny 86 30 63 17 46 46 N 6 9 29.81 1009 10 16.0934 0 0
1:15 pm 13:15 Sunny 86 30 62 16.6 44 44 NNE 5 7 29.8 1009 10 16.0934 0 0
1:35 pm 13:35 Sunny 86 30.1 63 17.1 46 46 Calm 29.8 1009 10 16.0934 0 0
1:55 pm 13:55 Sunny 87 30.6 63 17.3 45 45 NE 6 9 29.78 1009 10 16.0934 0 0
2:15 pm 14:15 Sunny 88 30.9 63 17.3 44 44 NNE 7 11 29.77 1008 10 16.0934 0 0
2:35 pm 14:35 Sunny 89 31.4 62 16.8 42 42 N 6 9 29.77 1008 10 16.0934 0 0
2:55 pm 14:55 Sunny 89 31.4 62 16.8 42 42 ENE 3 6 29.77 1008 10 16.0934 0 0
3:15 pm 15:15 Sunny 90 32.3 64 18 43 43 NNE 6 9 29.76 1008 10 16.0934 0 0
3:35 pm 15:35 Sunny 90 32.1 63 17.2 41 41 ESE 6 9 29.76 1008 10 16.0934 0 0
3:55 pm 15:55 Sunny 91 32.5 63 17.3 40 40 ENE 8 13 29.76 1008 10 16.0934 0 0
4:15 pm 16:15 Hazy 91 32.6 63 17.3 40 40 NE 5 7 29.75 1007 4 6.43736 0 0
4:35 pm 16:35 Sunny 91 32.7 63 17.1 39 39 NE 8 13 29.74 1007 10 16.0934 0 0
4:55 pm 16:55 Sunny 90 32.4 63 17.1 40 40 E 8 13 29.74 1007 10 16.0934 0 0
5:15 pm 17:15 Sunny 91 32.7 64 18 42 42 NE 10 17 29.74 1007 10 16.0934 0 0
5:35 pm 17:35 Sunny 91 32.6 64 17.9 42 42 NE 6 9 29.73 1007 10 16.0934 0 0
5:55 pm 17:55 Sunny 90 32.1 64 17.9 43 43 E 6 9 29.73 1007 10 16.0934 0 0
6:15 pm 18:15 Sunny 89 31.5 64 17.5 43 43 E 6 9 29.74 1007 10 16.0934 0 0
6:30 pm 18:30 Sunny 89 31.6 64 18 44 44 ENE 9 15 29.74 1007 10 16.0934 0 0
6:55 pm 18:55 Sunny 87 30.7 64 17.8 46 46 ENE 5 7 29.74 1007 10 16.0934 0 0
7:15 pm 19:15 Sunny 87 30.8 64 17.9 46 46 ENE 6 9 29.74 1007 10 16.0934 0 0
7:35 pm 19:35 Sunny 86 30.2 65 18.4 49 49 ENE 8 13 29.75 1007 10 16.0934 0 0
7:55 pm 19:55 Sunny 85 29.5 65 18.6 52 52 ENE 8 13 29.74 1007 10 16.0934 0 0
8:15 pm 20:15 Sunny 84 28.7 66 19.1 56 56 ENE 6 9 29.75 1007 10 16.0934 0 0
8:35 pm 20:35 Sunny 81 27.2 67 19.5 63 63 ENE 5 7 29.77 1008 10 16.0934 0 0
8:55 pm 20:55 Sunny 79 25.9 67 19.5 68 68 NE 5 7 29.78 1009 10 16.0934 0 0
9:15 pm 21:15 Clear 76 24.6 67 19.3 72 72 NE 5 7 29.79 1009 10 16.0934 0 0
9:35 pm 21:35 Clear 74 23.6 67 19.2 76 76 NE 3 6 29.81 1010 10 16.0934 0 0
9:55 pm 21:55 Clear 74 23.1 66 19.1 78 78 Calm 29.82 1010 10 16.0934 0 0
10:15 pm 22:15 Clear 72 22.3 67 19.2 83 83 N 6 9 29.83 1010 10 16.0934 0 0
10:35 pm 22:35 Clear 71 21.9 66 19 84 84 N 5 7 29.83 1010 10 16.0934 0 0
10:55 pm 22:55 Clear 71 21.6 67 19.2 86 86 NNE 7 11 29.83 1010 10 16.0934 0 0
11:15 pm 23:15 Clear 73 22.5 66 19 81 81 NNE 8 13 29.81 1010 10 16.0934 0 0
11:35 pm 23:35 Clear 73 22.8 66 19 79 79 NE 9 15 29.79 1009 10 16.0934 0 0
11:55 pm 23:55 Clear 73 23 66 18.7 77 77 Calm 29.82 1010 10 16.0934 0 0

Powered by AerisWeather